KF5JED-13 Weather Reports


time (UTC)temp
C
wind
direction
speed
KPH
gust
KPH
rain 1hr
cm
rain 24hr
cm
rain mn
cm
humidity
%
barometer
mb
20260903082240 23 163 14.5 19.3 0.00 0.00 0.00 54 1015.8
20260903081739 23 163 16.1 22.5 0.00 0.00 0.00 53 1015.8
20260903081230 23 171 16.1 24.1 0.00 0.00 0.00 52 1015.7
20260903080725 23 169 17.7 25.7 0.00 0.00 0.00 51 1015.9
20260903080223 24 180 17.7 24.1 0.00 0.00 0.00 51 1015.7
20260903075722 24 180 20.9 27.4 0.00 0.00 0.00 51 1015.8
20260903075212 24 185 12.9 25.7 0.00 0.00 0.00 50 1015.8
20260903074710 24 170 24.1 27.4 0.00 0.00 0.00 51 1015.9
20260903074207 23 162 12.9 24.1 0.00 0.00 0.00 51 1015.8
20260903073701 23 168 16.1 24.1 0.00 0.00 0.00 51 1015.7
20260903073156 23 172 17.7 19.3 0.00 0.00 0.00 52 1015.8
20260903072652 23 167 16.1 19.3 0.00 0.00 0.00 52 1015.9
20260903072149 23 153 12.9 19.3 0.00 0.00 0.00 51 1016.0
20260903071644 23 170 16.1 19.3 0.00 0.00 0.00 52 1015.7
20260903071139 23 154 12.9 20.9 0.00 0.00 0.00 53 1015.9
20260903070634 23 163 12.9 19.3 0.00 0.00 0.00 53 1015.9
20260903070130 23 155 14.5 19.3 0.00 0.00 0.00 53 1016.0
20260903065629 23 165 14.5 19.3 0.00 0.00 0.00 52 1015.9
20260903065124 23 160 14.5 19.3 0.00 0.00 0.00 52 1015.8
20260903064624 24 149 16.1 17.7 0.00 0.00 0.00 51 1016.0
20260903064119 23 168 12.9 20.9 0.00 0.00 0.00 52 1016.0
20260903063615 23 157 14.5 20.9 0.00 0.00 0.00 52 1016.0
20260903063110 24 156 14.5 20.9 0.00 0.00 0.00 52 1016.0
20260903062605 23 154 9.7 20.9 0.00 0.00 0.00 53 1015.9
20260903062101 23 150 19.3 19.3 0.00 0.00 0.00 54 1016.0
20260903061556 23 166 12.9 14.5 0.00 0.00 0.00 56 1016.0
20260903061055 23 170 9.7 16.1 0.00 0.00 0.00 56 1015.9
20260903060555 23 166 14.5 14.5 0.00 0.00 0.00 56 1016.1
20260903060050 22 173 9.7 14.5 0.00 0.00 0.00 58 1015.9
20260903055547 22 163 9.7 11.3 0.00 0.00 0.00 60 1015.9
20260903055047 22 160 8.0 11.3 0.00 0.00 0.00 60 1015.9
20260903054542 22 164 9.7 12.9 0.00 0.00 0.00 59 1016.0
20260903054037 23 158 9.7 14.5 0.00 0.00 0.00 58 1015.8
20260903053532 22 159 11.3 14.5 0.00 0.00 0.00 59 1015.9
20260903053029 22 160 9.7 12.9 0.00 0.00 0.00 60 1016.1
20260903052524 22 158 9.7 11.3 0.00 0.00 0.00 60 1016.0
20260903052019 23 172 8.0 9.7 0.00 0.00 0.00 58 1015.8
20260903051514 23 165 12.9 12.9 0.00 0.00 0.00 57 1015.9
20260903051010 23 160 8.0 12.9 0.00 0.00 0.00 55 1015.9
20260903050509 25 163 9.7 14.5 0.00 0.00 0.00 52 1016.0
20260903050004 25 160 16.1 17.7 0.00 0.05 0.05 51 1016.0
20260903045459 26 155 17.7 19.3 0.00 0.05 0.05 48 1016.0
20260903044955 26 161 17.7 22.5 0.00 0.05 0.05 48 1015.8
20260903044451 26 148 17.7 22.5 0.00 0.05 0.05 49 1015.8
20260903043947 25 152 12.9 17.7 0.00 0.05 0.05 52 1015.8
20260903043442 25 145 11.3 16.1 0.00 0.05 0.05 54 1015.7
20260903042940 25 155 8.0 17.7 0.00 0.05 0.05 55 1015.8
20260903042436 25 136 8.0 16.1 0.00 0.05 0.05 55 1015.7
20260903041932 25 138 12.9 19.3 0.00 0.05 0.05 55 1015.8
20260903041428 25 142 11.3 20.9 0.00 0.05 0.05 56 1015.5
20260903040924 25 144 9.7 17.7 0.00 0.05 0.05 57 1015.7
20260903040423 25 134 9.7 17.7 0.00 0.05 0.05 57 1015.7
20260903035919 25 143 6.4 12.9 0.00 0.05 0.05 57 1016.0
20260903035415 25 155 9.7 14.5 0.00 0.05 0.05 56 1015.9
20260903034914 25 143 9.7 17.7 0.00 0.05 0.05 56 1016.0
20260903034409 25 136 12.9 14.5 0.00 0.05 0.05 56 1015.8
20260903033905 25 135 9.7 16.1 0.00 0.05 0.05 57 1015.8
20260903033400 25 140 9.7 16.1 0.00 0.05 0.05 57 1015.8
20260903032854 26 148 14.5 16.1 0.00 0.05 0.05 55 1015.7
20260903032350 26 156 11.3 16.1 0.00 0.05 0.05 54 1016.0
20260903031845 26 142 9.7 14.5 0.00 0.05 0.05 55 1015.8
20260903031344 26 145 9.7 16.1 0.00 0.05 0.05 55 1015.7
20260903030840 26 140 8.0 16.1 0.00 0.05 0.05 55 1015.9
20260903030335 26 141 9.7 16.1 0.00 0.05 0.05 54 1015.8
20260903025826 26 145 6.4 14.5 0.00 0.05 0.05 54 1015.5
20260903025321 25 137 9.7 12.9 0.00 0.05 0.05 54 1015.3
20260903024821 26 141 11.3 16.1 0.00 0.05 0.05 54 1015.5
20260903024320 26 134 9.7 16.1 0.00 0.05 0.05 53 1015.5
20260903023816 26 139 14.5 14.5 0.00 0.05 0.05 53 1015.3
20260903023312 25 141 11.3 12.9 0.00 0.05 0.05 55 1015.3
20260903022806 25 132 6.4 14.5 0.00 0.05 0.05 55 1015.2
20260903022306 25 135 4.8 8.0 0.00 0.05 0.05 56 1015.6
20260903021759 25 105 4.8 9.7 0.00 0.05 0.05 55 1015.6
20260903021254 26 142 8.0 9.7 0.00 0.05 0.05 53 1015.5
20260903020749 26 138 8.0 12.9 0.00 0.05 0.05 51 1015.6
20260903020243 26 129 9.7 11.3 0.00 0.05 0.05 51 1015.5
20260903015739 26 126 8.0 12.9 0.00 0.05 0.05 51 1015.2
20260903015234 26 137 4.8 9.7 0.00 0.05 0.05 52 1015.5
20260903014729 26 142 6.4 9.7 0.00 0.05 0.05 51 1015.5
20260903014229 26 133 6.4 12.9 0.00 0.05 0.05 52 1015.5
20260903013724 26 132 8.0 9.7 0.00 0.05 0.05 53 1015.3
20260903013223 26 138 6.4 9.7 0.00 0.05 0.05 53 1015.3
20260903012721 27 148 9.7 9.7 0.00 0.05 0.05 52 1015.2
20260903012215 27 97 3.2 8.0 0.00 0.05 0.05 50 1015.5
20260903011710 27 126 4.8 8.0 0.00 0.05 0.05 50 1015.7
20260903011204 27 109 3.2 9.7 0.00 0.05 0.05 49 1015.3
20260903010659 27 110 3.2 9.7 0.00 0.05 0.05 49 1015.3
20260903010159 27 123 4.8 12.9 0.00 0.05 0.05 49 1015.2
20260903005653 27 122 6.4 9.7 0.00 0.05 0.05 49 1015.5
20260903005148 27 108 4.8 8.0 0.00 0.05 0.05 49 1015.3
20260903004644 27 141 8.0 16.1 0.00 0.05 0.05 48 1015.5
20260903004138 28 136 4.8 17.7 0.00 0.05 0.05 47 1015.2
20260903003633 28 128 12.9 16.1 0.00 0.05 0.05 47 1015.6
20260903003123 28 115 4.8 11.3 0.00 0.05 0.05 48 1015.6
20260903002618 28 133 6.4 16.1 0.00 0.05 0.05 47 1015.5
20260903002112 28 134 14.5 19.3 0.00 0.05 0.05 47 1015.8
20260903001607 28 134 14.5 17.7 0.00 0.05 0.05 47 1015.5
20260903001101 28 141 12.9 20.9 0.00 0.05 0.05 48 1015.6
20260903000557 28 138 12.9 24.1 0.00 0.05 0.05 47 1015.7
20260903000056 28 145 20.9 29.0 0.00 0.05 0.05 47 1015.7
20260902235555 28 141 12.9 24.1 0.00 0.05 0.05 50 1015.7
20260902235050 29 152 11.3 24.1 0.00 0.05 0.05 48 1015.8
20260902234545 30 156 11.3 25.7 0.00 0.05 0.05 46 1015.9
20260902234043 30 138 16.1 29.0 0.00 0.05 0.05 45 1015.8
20260902233538 31 150 14.5 32.2 0.00 0.05 0.05 43 1015.7
20260902233033 30 145 16.1 24.1 0.00 0.05 0.05 46 1015.9
20260902232532 30 152 12.9 22.5 0.00 0.05 0.05 46 1015.9
20260902232026 30 155 12.9 16.1 0.00 0.05 0.05 48 1015.9
20260902231521 30 138 16.1 24.1 0.00 0.05 0.05 48 1015.9
20260902231020 30 159 16.1 22.5 0.00 0.05 0.05 47 1015.8
20260902230515 30 145 14.5 27.4 0.00 0.05 0.05 47 1015.8
20260902230014 30 164 19.3 25.7 0.00 0.05 0.05 46 1015.9
20260902225510 30 162 17.7 20.9 0.00 0.05 0.05 47 1015.9
20260902225004 30 157 11.3 20.9 0.00 0.05 0.05 46 1015.7
20260902224502 30 159 6.4 20.9 0.00 0.05 0.05 46 1015.8
20260902223954 31 157 16.1 20.9 0.00 0.05 0.05 44 1015.8
20260902223449 30 155 19.3 20.9 0.00 0.05 0.05 47 1015.9
20260902222948 31 141 11.3 22.5 0.00 0.05 0.05 47 1016.1
20260902222446 31 178 20.9 22.5 0.00 0.05 0.05 44 1016.0
20260902221941 31 162 11.3 17.7 0.00 0.05 0.05 47 1015.9
20260902221439 31 153 11.3 17.7 0.00 0.05 0.05 47 1016.0
20260902220935 31 139 11.3 17.7 0.00 0.05 0.05 48 1015.8
20260902220430 30 160 9.7 20.9 0.00 0.05 0.05 49 1016.1
20260902215925 30 150 14.5 25.7 0.05 0.05 0.05 48 1016.1
20260902215420 30 146 8.0 9.7 0.05 0.05 0.05 45 1016.2
20260902214916 30 134 14.5 19.3 0.00 0.03 0.03 43 1016.2
20260902214414 29 131 9.7 12.9 0.00 0.03 0.03 44 1016.0
20260902213909 28 163 17.7 24.1 0.00 0.03 0.03 49 1016.0
20260902213406 25 158 24.1 37.0 0.05 0.03 0.03 56 1016.1
20260902212904 23 175 22.5 37.0 0.18 0.03 0.03 67 1016.1
20260902212400 25 199 24.1 40.2 0.13 0.03 0.03 65 1016.7
20260902211856 27 215 41.8 46.7 0.00 0.00 0.00 48 1016.2
20260902211352 27 211 37.0 45.1 0.00 0.00 0.00 50 1016.1
20260902210841 28 208 27.4 40.2 0.00 0.00 0.00 61 1016.0
20260902210341 28 228 24.1 33.8 0.00 0.00 0.00 47 1016.0
20260902205839 30 226 17.7 37.0 0.00 0.00 0.00 42 1016.1
20260902205334 31 218 19.3 40.2 0.00 0.00 0.00 40 1016.0
20260902204830 33 207 17.7 30.6 0.00 0.00 0.00 35 1015.9
20260902204324 33 192 8.0 16.1 0.00 0.00 0.00 34 1016.1
20260902203820 33 180 17.7 22.5 0.00 0.00 0.00 34 1016.0
20260902203315 34 177 24.1 27.4 0.00 0.00 0.00 33 1016.1
20260902202814 35 199 22.5 27.4 0.00 0.00 0.00 33 1016.0
20260902202311 35 205 14.5 27.4 0.00 0.00 0.00 32 1016.3
20260902201807 34 209 24.1 30.6 0.00 0.00 0.00 33 1016.2
20260902201306 35 217 22.5 25.7 0.00 0.00 0.00 32 1016.5
20260902200802 34 205 12.9 20.9 0.00 0.00 0.00 33 1016.7
20260902200257 35 217 29.0 37.0 0.00 0.00 0.00 33 1016.5
20260902195752 35 162 17.7 27.4 0.00 0.00 0.00 32 1016.8
20260902195251 34 209 17.7 29.0 0.00 0.00 0.00 34 1017.1
20260902194746 33 204 12.9 22.5 0.00 0.00 0.00 34 1017.1
20260902194241 33 197 17.7 29.0 0.00 0.00 0.00 34 1017.0
20260902193737 34 219 30.6 33.8 0.00 0.00 0.00 34 1017.2
20260902193232 34 210 17.7 22.5 0.00 0.00 0.00 34 1017.1
20260902192731 33 227 9.7 24.1 0.00 0.00 0.00 34 1017.3
20260902192230 35 209 12.9 22.5 0.00 0.00 0.00 33 1017.2
20260902191725 35 210 22.5 30.6 0.00 0.00 0.00 32 1017.3
20260902191219 34 215 25.7 41.8 0.00 0.00 0.00 34 1017.5
20260902190714 33 245 6.4 27.4 0.00 0.00 0.00 36 1017.6
20260902190209 35 188 19.3 25.7 0.00 0.00 0.00 34 1017.8
20260902185705 34 206 20.9 29.0 0.00 0.00 0.00 33 1017.9
20260902185202 34 206 16.1 27.4 0.00 0.00 0.00 35 1017.7
20260902184656 34 209 20.9 29.0 0.00 0.00 0.00 35 1017.8
20260902184151 34 174 14.5 29.0 0.00 0.00 0.00 35 1018.1
20260902183647 35 187 24.1 32.2 0.00 0.00 0.00 35 1018.1
20260902183143 33 200 19.3 20.9 0.00 0.00 0.00 35 1018.4
20260902182639 33 237 12.9 30.6 0.00 0.00 0.00 36 1018.6
20260902182135 33 211 17.7 29.0 0.00 0.00 0.00 36 1018.7
20260902181631 33 202 14.5 32.2 0.00 0.00 0.00 36 1018.5
20260902181131 34 172 16.1 30.6 0.00 0.00 0.00 36 1018.7
20260902180630 33 211 16.1 20.9 0.00 0.00 0.00 37 1018.8
20260902180126 32 191 20.9 27.4 0.00 0.00 0.00 38 1019.0
20260902175626 32 203 16.1 25.7 0.00 0.00 0.00 37 1018.9
20260902175122 32 203 19.3 40.2 0.00 0.00 0.00 37 1018.9
20260902174618 32 198 22.5 25.7 0.00 0.00 0.00 38 1018.9
20260902174114 33 185 27.4 33.8 0.00 0.00 0.00 36 1018.9
20260902173608 34 208 22.5 32.2 0.00 0.00 0.00 36 1018.9
20260902173103 33 181 22.5 32.2 0.00 0.00 0.00 36 1019.1
20260902172557 33 202 33.8 35.4 0.00 0.00 0.00 37 1019.1
20260902172051 33 211 24.1 25.7 0.00 0.00 0.00 38 1019.2
20260902171547 33 193 17.7 32.2 0.00 0.00 0.00 38 1019.2
20260902171043 33 212 20.9 27.4 0.00 0.00 0.00 37 1019.4
20260902170537 32 214 24.1 32.2 0.00 0.00 0.00 39 1019.4
20260902170033 31 202 19.3 27.4 0.00 0.00 0.00 40 1019.4
20260902165527 32 218 17.7 32.2 0.00 0.00 0.00 40 1019.5
20260902165021 31 206 24.1 32.2 0.00 0.00 0.00 40 1019.5
20260902164516 32 194 16.1 25.7 0.00 0.00 0.00 39 1019.5
20260902164015 32 211 16.1 27.4 0.00 0.00 0.00 40 1019.6
20260902163511 31 214 19.3 29.0 0.00 0.00 0.00 42 1019.6
20260902163009 31 209 20.9 27.4 0.00 0.00 0.00 42 1019.6
20260902162504 30 208 14.5 27.4 0.00 0.00 0.00 43 1019.7
20260902161959 30 211 22.5 29.0 0.00 0.00 0.00 43 1019.5
20260902161454 30 210 19.3 27.4 0.00 0.00 0.00 44 1019.6
20260902160950 30 231 14.5 29.0 0.00 0.00 0.00 44 1019.5
20260902160445 30 217 19.3 32.2 0.00 0.00 0.00 45 1019.4
20260902155943 30 209 24.1 30.6 0.00 0.00 0.00 43 1019.5
20260902155439 30 214 20.9 27.4 0.00 0.00 0.00 44 1019.6
20260902154932 29 219 20.9 32.2 0.00 0.00 0.00 45 1019.6
20260902154428 30 200 20.9 27.4 0.00 0.00 0.00 45 1019.5
20260902153928 28 212 24.1 37.0 0.00 0.00 0.00 45 1019.4
20260902153426 29 208 19.3 37.0 0.00 0.00 0.00 45 1019.4
20260902152922 28 215 17.7 27.4 0.00 0.00 0.00 45 1019.5
20260902152418 28 203 17.7 24.1 0.00 0.00 0.00 44 1019.4
20260902151913 28 197 16.1 22.5 0.00 0.00 0.00 45 1019.1
20260902151409 27 200 17.7 24.1 0.00 0.00 0.00 46 1019.2
20260902150903 27 211 16.1 25.7 0.00 0.00 0.00 47 1019.6
20260902150359 27 213 12.9 24.1 0.00 0.00 0.00 46 1019.1
20260902145858 26 216 9.7 29.0 0.00 0.00 0.00 48 1019.1
20260902145354 26 207 16.1 22.5 0.00 0.00 0.00 49 1019.2
20260902144848 25 175 16.1 20.9 0.00 0.00 0.00 50 1019.5
20260902144345 25 180 9.7 17.7 0.00 0.00 0.00 51 1019.4
20260902143839 25 197 19.3 24.1 0.00 0.00 0.00 51 1019.5
20260902143334 25 196 12.9 20.9 0.00 0.00 0.00 52 1019.4
20260902142830 24 194 17.7 20.9 0.00 0.00 0.00 52 1019.5
20260902142326 24 211 17.7 24.1 0.00 0.00 0.00 52 1019.2
20260902141820 24 201 17.7 20.9 0.00 0.00 0.00 52 1019.2
20260902141316 23 209 17.7 25.7 0.00 0.00 0.00 53 1019.5
20260902140816 24 201 17.7 20.9 0.00 0.00 0.00 52 1019.1
20260902140311 24 192 17.7 20.9 0.00 0.00 0.00 52 1019.4
20260902135810 23 188 16.1 20.9 0.00 0.00 0.00 54 1019.2
20260902135307 23 201 17.7 20.9 0.00 0.00 0.00 54 1019.1
20260902134805 23 196 11.3 17.7 0.00 0.00 0.00 55 1019.2
20260902134301 23 186 11.3 20.9 0.00 0.00 0.00 55 1019.0
20260902133756 23 195 12.9 22.5 0.00 0.00 0.00 54 1018.8
20260902133255 23 193 8.0 20.9 0.00 0.00 0.00 55 1019.0
20260902132750 23 197 16.1 20.9 0.00 0.00 0.00 55 1018.9
20260902132246 23 204 12.9 19.3 0.00 0.00 0.00 55 1018.9
20260902131742 22 204 11.3 20.9 0.00 0.00 0.00 56 1018.8
20260902131238 22 201 14.5 17.7 0.00 0.00 0.00 57 1018.8
20260902130737 22 201 9.7 19.3 0.00 0.00 0.00 57 1018.8
20260902130233 22 210 12.9 17.7 0.00 0.00 0.00 58 1018.5
20260902125728 21 193 11.3 16.1 0.00 0.00 0.00 59 1018.6
20260902125224 21 180 12.9 17.7 0.00 0.00 0.00 59 1018.5
20260902124721 21 193 11.3 17.7 0.00 0.00 0.00 60 1018.4
20260902124216 21 200 9.7 19.3 0.00 0.00 0.00 60 1018.4
20260902123711 21 196 12.9 20.9 0.00 0.00 0.00 60 1018.4
20260902123206 21 198 11.3 19.3 0.00 0.00 0.00 60 1018.4
20260902122700 21 208 11.3 19.3 0.00 0.00 0.00 60 1018.1
20260902122156 20 188 9.7 16.1 0.00 0.00 0.00 61 1018.0
20260902121650 20 196 12.9 17.7 0.00 0.00 0.00 61 1017.9
20260902121145 20 187 12.9 14.5 0.00 0.00 0.00 61 1018.0
20260902120641 21 195 9.7 14.5 0.00 0.00 0.00 61 1017.9
20260902120138 21 191 11.3 16.1 0.00 0.00 0.00 61 1017.9
20260902115637 21 196 11.3 17.7 0.00 0.00 0.00 61 1018.0
20260902115134 20 186 11.3 14.5 0.00 0.00 0.00 61 1017.8
20260902114630 20 184 11.3 14.5 0.00 0.00 0.00 61 1017.7
20260902114129 20 180 11.3 14.5 0.00 0.00 0.00 61 1017.6
20260902113625 20 180 8.0 11.3 0.00 0.00 0.00 61 1017.7
20260902113120 21 178 9.7 12.9 0.00 0.00 0.00 61 1017.6
20260902112615 21 180 11.3 14.5 0.00 0.00 0.00 60 1017.7
20260902112112 21 172 9.7 14.5 0.00 0.00 0.00 60 1017.8
20260902111607 21 179 9.7 16.1 0.00 0.00 0.00 60 1017.8
20260902111103 21 184 11.3 16.1 0.00 0.00 0.00 60 1017.8
20260902110559 20 163 11.3 14.5 0.00 0.00 0.00 61 1018.0
20260902110054 20 153 8.0 16.1 0.00 0.00 0.00 61 1017.9
20260902105549 20 174 8.0 9.7 0.00 0.00 0.00 62 1017.8
20260902105048 20 175 6.4 9.7 0.00 0.00 0.00 61 1018.0
20260902104544 21 203 6.4 11.3 0.00 0.00 0.00 59 1018.0
20260902104039 21 200 11.3 12.9 0.00 0.00 0.00 58 1017.9
20260902103535 21 181 6.4 9.7 0.00 0.00 0.00 59 1017.6
20260902103030 21 199 8.0 11.3 0.00 0.00 0.00 59 1018.0
20260902102526 21 200 12.9 14.5 0.00 0.00 0.00 58 1018.0
20260902102023 21 212 12.9 17.7 0.00 0.00 0.00 57 1017.9
20260902101518 21 191 12.9 17.7 0.00 0.00 0.00 57 1017.9
20260902101016 21 185 12.9 16.1 0.00 0.00 0.00 57 1017.9
20260902100511 21 180 14.5 14.5 0.00 0.00 0.00 57 1017.8
20260902100006 21 166 11.3 16.1 0.00 0.00 0.00 57 1018.1
20260902095500 22 185 14.5 16.1 0.00 0.00 0.00 56 1017.9
20260902094959 22 202 11.3 19.3 0.00 0.00 0.00 56 1018.0
20260902094455 22 200 14.5 20.9 0.00 0.00 0.00 56 1018.0
20260902093950 22 194 14.5 20.9 0.00 0.00 0.00 56 1018.0
20260902093445 22 197 16.1 22.5 0.00 0.00 0.00 55 1017.8
20260902092944 22 201 12.9 17.7 0.00 0.00 0.00 55 1017.9
20260902092440 22 193 11.3 19.3 0.00 0.00 0.00 55 1018.0
20260902091940 22 192 12.9 17.7 0.00 0.00 0.00 55 1018.1
20260902091435 22 183 8.0 17.7 0.00 0.00 0.00 55 1017.9
20260902090931 22 201 8.0 19.3 0.00 0.00 0.00 55 1017.9
20260902090431 22 191 11.3 19.3 0.00 0.00 0.00 54 1018.1
20260902085930 22 189 12.9 16.1 0.00 0.00 0.00 55 1018.0
20260902085426 22 180 9.7 17.7 0.00 0.00 0.00 54 1018.4
20260902084921 22 172 11.3 17.7 0.00 0.00 0.00 54 1018.0
20260902084417 22 183 9.7 16.1 0.00 0.00 0.00 54 1018.1
20260902083913 22 186 14.5 16.1 0.00 0.00 0.00 54 1018.2
20260902083412 22 183 9.7 16.1 0.00 0.00 0.00 54 1018.2
20260902082908 22 185 12.9 16.1 0.00 0.00 0.00 53 1018.4